Grosse Ile, MI

8:30 PM EDT on March 25, 2017 (GMT -0400)
Grosse Ile Municipal

Weather History for KONZ - January, 2014

Change the Weather History Date:

Friday, January 31, 2014

  Actual Average (KDTW) Record (KDTW)
Temperature  
Mean Temperature 32 °F -  
Max Temperature 35 °F 32 °F 60 °F (1989)
Min Temperature 28 °F 18 °F -7 °F (1920)
Degree Days  
Heating Degree Days 34    
Moisture  
Dew Point 23 °F    
Average Humidity 72    
Maximum Humidity 93    
Minimum Humidity 60    
Precipitation  
Precipitation 0.00 in - - ()
Sea Level Pressure  
Sea Level Pressure 30.02 in    
Wind  
Wind Speed 8 mph (SW)    
Max Wind Speed 13 mph    
Max Gust Speed 20 mph    
Visibility 9 miles    
Events Snow    
Averages and records for this station are not official NWS values.
T = Trace of Precipitation, MM = Missing Value Source: NWS Daily Summary

Daily Weather History Graph

Daily Weather History Graph

Search for Another Location

Airport or City:

Trip Planner

Search our weather history database for the weather conditions in past years. The results will help you decide how hot, cold, wet, or windy it might be!

Date:

Astronomy

Jan. 31, 2014 Rise Set
Actual Time 7:46 AM EST 5:46 PM EST
Civil Twilight 7:16 AM EST 6:15 PM EST
Nautical Twilight 6:43 AM EST 6:49 PM EST
Astronomical Twilight 6:10 AM EST 7:22 PM EST
Moon 7:53 AM EST (1/31) 7:11 PM EST (1/31)
Length of Visible Light 10h 58m
Length of Day
9h 59m
New Moon, 1% of the Moon is Illuminated
Jan 31
New Moon
Feb 6
First Quarter
Feb 14
Full
Feb 22
Last Quarter
Mar 1
New

Hourly Weather History & Observations

Time (EST) Temp. Windchill Dew Point Humidity Pressure Visibility Wind Dir Wind Speed Gust Speed Precip Events Conditions
12:14 AM 28.4 °F 18.0 °F 21.2 °F 74% 29.85 in 10.0 mi SW 12.7 mph 18.4 mph N/A   Overcast
12:34 AM 30.2 °F 20.8 °F 21.2 °F 69% 29.86 in 10.0 mi SW 11.5 mph 19.6 mph N/A   Overcast
12:54 AM 30.2 °F 20.8 °F 21.2 °F 69% 29.86 in 10.0 mi SW 11.5 mph - N/A   Overcast
1:14 AM 30.2 °F 20.8 °F 21.2 °F 69% 29.86 in 10.0 mi SW 11.5 mph 19.6 mph N/A   Overcast
1:34 AM 30.2 °F 20.2 °F 21.2 °F 69% 29.87 in 10.0 mi SW 12.7 mph 18.4 mph N/A   Overcast
1:54 AM 30.2 °F 21.3 °F 21.2 °F 69% 29.86 in 10.0 mi SW 10.4 mph - N/A   Overcast
2:14 AM 30.2 °F 21.3 °F 19.4 °F 64% 29.87 in 10.0 mi SW 10.4 mph - N/A   Overcast
2:34 AM 30.2 °F 21.3 °F 19.4 °F 64% 29.89 in 10.0 mi SW 10.4 mph - N/A   Overcast
2:54 AM 30.2 °F 21.9 °F 19.4 °F 64% 29.89 in 10.0 mi SW 9.2 mph - N/A   Overcast
3:14 AM 30.2 °F 21.9 °F 19.4 °F 64% 29.89 in 10.0 mi SSW 9.2 mph - N/A   Overcast
3:34 AM 30.2 °F 21.9 °F 19.4 °F 64% 29.89 in 10.0 mi SW 9.2 mph - N/A   Overcast
3:54 AM 30.2 °F 21.9 °F 17.6 °F 60% 29.90 in 10.0 mi SW 9.2 mph - N/A   Overcast
4:14 AM 30.2 °F 22.6 °F 17.6 °F 60% 29.91 in 10.0 mi SW 8.1 mph - N/A   Overcast
4:34 AM 30.2 °F 21.9 °F 17.6 °F 60% 29.91 in 10.0 mi SW 9.2 mph - N/A   Overcast
4:54 AM 30.2 °F 22.6 °F 17.6 °F 60% 29.91 in 10.0 mi SW 8.1 mph - N/A   Overcast
5:14 AM 30.2 °F 21.9 °F 17.6 °F 60% 29.92 in 10.0 mi SW 9.2 mph - N/A   Overcast
5:34 AM 30.2 °F 24.3 °F 17.6 °F 60% 29.92 in 10.0 mi SW 5.8 mph - N/A   Overcast
5:54 AM 30.2 °F 23.4 °F 19.4 °F 64% 29.94 in 10.0 mi SW 6.9 mph - N/A   Overcast
6:14 AM 30.2 °F 23.4 °F 19.4 °F 64% 29.95 in 10.0 mi SW 6.9 mph - N/A   Overcast
6:34 AM 32.0 °F 25.6 °F 19.4 °F 60% 29.95 in 10.0 mi WSW 6.9 mph - N/A   Overcast
6:54 AM 32.0 °F 26.4 °F 19.4 °F 60% 29.96 in 10.0 mi SSW 5.8 mph - N/A   Overcast
7:14 AM 30.2 °F 25.4 °F 19.4 °F 64% 29.97 in 10.0 mi SW 4.6 mph - N/A   Overcast
7:34 AM 30.2 °F 25.4 °F 21.2 °F 69% 29.99 in 10.0 mi SW 4.6 mph - N/A   Overcast
7:54 AM 30.2 °F 24.3 °F 21.2 °F 69% 30.00 in 10.0 mi SSW 5.8 mph - N/A   Overcast
8:14 AM 30.2 °F 26.7 °F 21.2 °F 69% 30.01 in 10.0 mi SSW 3.5 mph - N/A   Overcast
8:34 AM 30.2 °F 25.4 °F 21.2 °F 69% 30.02 in 10.0 mi SW 4.6 mph - N/A   Overcast
8:54 AM 30.2 °F 25.4 °F 21.2 °F 69% 30.02 in 10.0 mi SW 4.6 mph - N/A   Mostly Cloudy
9:14 AM 30.2 °F 24.3 °F 21.2 °F 69% 30.04 in 10.0 mi SW 5.8 mph - N/A   Mostly Cloudy
9:34 AM 32.0 °F 26.4 °F 21.2 °F 64% 30.04 in 10.0 mi SW 5.8 mph - N/A   Mostly Cloudy
9:54 AM 32.0 °F 26.4 °F 21.2 °F 64% 30.05 in 10.0 mi SW 5.8 mph - N/A   Scattered Clouds
10:14 AM 32.0 °F 25.6 °F 21.2 °F 64% 30.06 in 10.0 mi WSW 6.9 mph - N/A   Clear
10:34 AM 32.0 °F 25.6 °F 21.2 °F 64% 30.06 in 10.0 mi WSW 6.9 mph - N/A   Scattered Clouds
10:54 AM 33.8 °F 26.4 °F 23.0 °F 65% 30.06 in 10.0 mi WSW 9.2 mph - N/A   Scattered Clouds
11:14 AM 33.8 °F 27.0 °F 24.8 °F 70% 30.06 in 10.0 mi WSW 8.1 mph - N/A   Scattered Clouds
11:34 AM 33.8 °F 28.6 °F 24.8 °F 70% 30.05 in 10.0 mi West 5.8 mph - N/A   Clear
11:54 AM 33.8 °F 28.6 °F 24.8 °F 70% 30.05 in 10.0 mi West 5.8 mph - N/A   Clear
12:14 PM 35.6 °F 29.9 °F 24.8 °F 65% 30.05 in 10.0 mi WSW 6.9 mph - N/A   Clear
12:34 PM 35.6 °F 30.7 °F 24.8 °F 65% 30.04 in 10.0 mi West 5.8 mph - N/A   Clear
12:54 PM 35.6 °F 29.9 °F 24.8 °F 65% 30.04 in 10.0 mi West 6.9 mph - N/A   Clear
1:14 PM 35.6 °F 29.9 °F 24.8 °F 65% 30.04 in 10.0 mi West 6.9 mph - N/A   Clear
1:34 PM 35.6 °F 28.0 °F 24.8 °F 65% 30.05 in 10.0 mi WSW 10.4 mph - N/A   Clear
1:54 PM 35.6 °F 29.2 °F 24.8 °F 65% 30.07 in 10.0 mi West 8.1 mph - N/A   Clear
2:14 PM 35.6 °F 30.7 °F 24.8 °F 65% 30.06 in 10.0 mi WSW 5.8 mph - N/A   Clear
2:34 PM 35.6 °F 29.2 °F 24.8 °F 65% 30.06 in 10.0 mi WSW 8.1 mph - N/A   Clear
2:54 PM 35.6 °F 29.2 °F 24.8 °F 65% 30.07 in 10.0 mi SW 8.1 mph - N/A   Scattered Clouds
3:14 PM 35.6 °F 28.0 °F 24.8 °F 65% 30.07 in 10.0 mi WSW 10.4 mph - N/A   Scattered Clouds
3:34 PM 33.8 °F 27.7 °F 24.8 °F 70% 30.07 in 10.0 mi West 6.9 mph - N/A   Clear
3:54 PM 33.8 °F 27.7 °F 24.8 °F 70% 30.08 in 10.0 mi WSW 6.9 mph - N/A   Scattered Clouds
4:14 PM 33.8 °F 29.6 °F 24.8 °F 70% 30.09 in 10.0 mi WSW 4.6 mph - N/A   Mostly Cloudy
4:34 PM 33.8 °F 28.6 °F 26.6 °F 75% 30.09 in 10.0 mi WSW 5.8 mph - N/A   Overcast
4:54 PM 33.8 °F 27.7 °F 26.6 °F 75% 30.09 in 5.0 mi WSW 6.9 mph - N/A Snow Light Snow
5:14 PM 33.8 °F 27.7 °F 26.6 °F 75% 30.10 in 7.0 mi WSW 6.9 mph - N/A   Overcast
5:34 PM 32.0 °F 25.6 °F 28.4 °F 87% 30.09 in 5.0 mi SW 6.9 mph - N/A Snow Light Snow
5:54 PM 32.0 °F 26.4 °F 28.4 °F 87% 30.10 in 5.0 mi SW 5.8 mph - N/A   Overcast
6:14 PM 30.2 °F 24.3 °F 26.6 °F 86% 30.10 in 7.0 mi WSW 5.8 mph - N/A   Overcast
6:34 PM 30.2 °F 25.4 °F 26.6 °F 86% 30.12 in 7.0 mi SW 4.6 mph - N/A   Overcast
6:54 PM 30.2 °F 25.4 °F 26.6 °F 86% 30.12 in 7.0 mi SSW 4.6 mph - N/A   Overcast
7:14 PM 30.2 °F 25.4 °F 26.6 °F 86% 30.12 in 5.0 mi SW 4.6 mph - N/A   Overcast
7:34 PM 30.2 °F 24.3 °F 26.6 °F 86% 30.12 in 7.0 mi SSW 5.8 mph - N/A   Overcast
7:54 PM 30.2 °F 25.4 °F 26.6 °F 86% 30.12 in 7.0 mi SW 4.6 mph - N/A   Overcast
8:14 PM 30.2 °F 24.3 °F 26.6 °F 86% 30.12 in 7.0 mi SSW 5.8 mph - N/A   Scattered Clouds
8:34 PM 30.2 °F 24.3 °F 26.6 °F 86% 30.12 in 7.0 mi SW 5.8 mph - N/A   Clear
8:54 PM 30.2 °F 24.3 °F 26.6 °F 86% 30.12 in 5.0 mi SW 5.8 mph - N/A   Scattered Clouds
9:14 PM 30.2 °F 25.4 °F 26.6 °F 86% 30.12 in 7.0 mi SW 4.6 mph - N/A   Clear
9:34 PM 30.2 °F 26.7 °F 26.6 °F 86% 30.13 in 7.0 mi SW 3.5 mph - N/A   Mostly Cloudy
9:54 PM 30.2 °F 25.4 °F 26.6 °F 86% 30.12 in 7.0 mi SSW 4.6 mph - N/A   Overcast
10:14 PM 30.2 °F 25.4 °F 26.6 °F 86% 30.12 in 7.0 mi SSW 4.6 mph - N/A   Overcast
10:34 PM 30.2 °F 25.4 °F 26.6 °F 86% 30.12 in 5.0 mi SSW 4.6 mph - N/A   Overcast
10:54 PM 30.2 °F 25.4 °F 26.6 °F 86% 30.12 in 4.0 mi SW 4.6 mph - N/A Snow Light Snow
11:14 PM 28.4 °F 23.3 °F 26.6 °F 93% 30.12 in 4.0 mi SW 4.6 mph - N/A Snow Light Snow
11:34 PM 28.4 °F - 24.8 °F 86% 30.12 in 4.0 mi Calm Calm - N/A Snow Light Snow
11:54 PM 28.4 °F - 24.8 °F 86% 30.12 in 3.0 mi Calm Calm - N/A Snow Light Snow